Total_Precipitation_Accumulation
1.21 1.15 1.04 1.04 0.97 1.07 1.23 1.35 1.39 1.40 1.42 1.35 1.20 1.31 1.36 1.46 1.54 1.64 1.90 2.21 2.53 3.01 3.33 3.20 2.83 2.50 2.38 2.33 2.34 2.35 2.40 2.55 2.57 2.61 2.61 2.52 2.47 2.36 2.35 2.33 2.27 2.24 2.27
1.17 1.17 1.13 1.17 1.11 1.14 1.27 1.30 1.24 1.32 1.44 1.36 1.19 1.22 1.29 1.38 1.48 1.49 1.61 1.89 2.17 2.45 3.08 3.42 3.27 3.05 2.97 2.73 2.74 2.70 2.61 2.42 2.37 2.49 2.48 2.46 2.49 2.34 2.26 2.18 2.14 2.06 2.05
1.03 1.09 1.13 1.12 1.15 1.26 1.33 1.40 1.22 1.27 1.28 1.23 1.23 1.23 1.20 1.24 1.29 1.33 1.34 1.48 1.65 1.94 2.51 3.07 3.33 3.39 3.45 3.30 3.12 2.89 2.61 2.37 2.33 2.39 2.39 2.30 2.35 2.30 2.17 2.17 2.06 2.09 2.04
0.98 1.13 1.16 1.11 1.11 1.28 1.41 1.49 1.42 1.43 1.41 1.35 1.34 1.31 1.22 1.27 1.20 1.22 1.26 1.30 1.54 1.53 1.91 2.40 2.75 2.99 3.33 3.36 3.20 3.02 2.72 2.32 2.18 2.31 2.37 2.17 2.17 2.19 2.08 2.16 2.05 1.97 1.92
1.08 1.26 1.37 1.35 1.31 1.35 1.38 1.38 1.49 1.55 1.53 1.52 1.42 1.38 1.34 1.28 1.31 1.20 1.23 1.33 1.35 1.46 1.68 1.91 2.12 2.29 2.70 2.97 3.15 3.30 3.09 2.59 2.30 2.35 2.40 2.17 2.08 2.19 2.06 2.04 1.98 1.81 1.73
1.41 1.55 1.55 1.63 1.67 1.59 1.59 1.56 1.61 1.60 1.53 1.61 1.47 1.34 1.32 1.25 1.37 1.44 1.37 1.42 1.44 1.43 1.79 2.00 1.95 1.82 2.18 2.55 2.87 3.25 3.37 3.03 2.77 2.56 2.55 2.37 2.18 2.29 2.08 1.99 1.98 1.72 1.63
1.70 1.94 1.90 1.99 2.05 1.97 1.94 1.93 2.17 2.12 1.82 1.64 1.74 1.59 1.43 1.30 1.47 1.55 1.49 1.59 1.68 1.80 2.02 2.04 1.86 1.69 1.63 1.89 2.19 2.72 3.36 3.33 3.13 2.82 2.68 2.48 2.22 2.14 1.90 1.86 1.88 1.76 1.59
1.57 1.75 2.05 2.19 2.16 2.28 2.38 2.36 2.72 2.85 2.35 1.90 2.02 2.29 2.02 1.82 1.63 1.50 1.55 1.62 1.77 2.00 2.11 1.98 1.80 1.60 1.48 1.55 1.58 2.03 2.72 3.12 3.16 2.97 2.76 2.49 2.27 2.07 1.94 1.93 1.89 1.92 1.74
1.54 1.67 1.84 1.99 2.03 2.17 2.36 2.47 2.79 3.34 3.09 2.41 2.23 2.67 2.45 2.22 2.09 1.78 1.62 1.63 1.70 1.97 2.25 2.18 1.95 1.72 1.54 1.59 1.55 1.76 2.10 2.43 2.97 3.14 3.01 2.72 2.50 2.21 2.10 2.16 1.94 2.08 2.07
1.43 1.55 1.68 1.80 1.92 1.98 2.15 2.23 2.38 2.97 3.37 3.03 2.73 2.42 2.11 2.08 2.27 2.27 1.91 1.71 1.70 1.83 2.05 2.05 1.93 1.87 1.73 1.61 1.52 1.52 1.79 2.04 2.62 3.08 3.29 3.15 2.87 2.55 2.49 2.64 2.32 2.14 2.10
1.50 1.52 1.68 1.74 1.76 1.84 1.98 2.30 2.58 2.89 3.13 3.15 3.13 2.90 2.60 2.34 2.01 2.29 2.35 2.01 1.87 1.83 1.88 1.93 1.83 1.83 1.83 1.76 1.82 1.60 1.56 1.79 2.14 2.65 3.25 3.55 3.30 3.01 3.02 3.08 2.66 2.44 2.34
1.65 1.67 1.72 1.75 1.72 1.76 1.89 2.13 2.45 2.69 3.01 3.25 3.21 3.00 2.86 2.74 2.49 2.43 2.30 2.14 2.15 2.01 1.88 1.84 1.70 1.68 1.82 1.99 1.96 1.95 1.64 1.53 1.64 1.95 2.40 2.90 3.16 3.21 3.36 3.37 3.09 3.07 2.89
1.58 1.60 1.68 1.81 1.88 1.93 2.05 2.22 2.39 2.34 2.54 2.97 3.02 2.88 2.81 2.63 2.56 2.63 2.57 2.25 2.11 1.86 1.75 1.72 1.59 1.65 1.64 1.71 1.95 2.13 1.71 1.44 1.30 1.55 1.74 1.93 2.24 2.67 3.16 3.44 3.46 3.47 3.32
1.52 1.46 1.49 1.60 1.72 1.92 1.97 2.04 2.10 2.06 2.17 2.43 2.55 2.75 2.87 2.66 2.57 2.46 2.43 2.49 2.25 1.96 1.80 1.65 1.49 1.50 1.50 1.55 1.79 1.95 1.63 1.42 1.11 1.11 1.24 1.46 1.63 1.87 2.27 2.77 3.20 3.38 3.46
1.27 1.19 1.18 1.26 1.34 1.42 1.51 1.67 1.78 1.88 1.95 2.08 2.22 2.36 2.53 2.67 2.61 2.44 2.43 2.42 2.40 2.18 1.96 1.79 1.60 1.40 1.47 1.58 1.81 1.60 1.51 1.46 1.21 1.06 1.02 1.14 1.33 1.44 1.61 1.82 2.12 2.50 2.81
1.22 1.14 1.09 1.06 1.05 1.00 1.04 1.23 1.44 1.56 1.67 1.84 2.03 2.16 2.21 2.29 2.48 2.48 2.36 2.38 2.32 2.18 2.01 1.77 1.65 1.49 1.61 1.55 1.73 1.53 1.55 1.61 1.30 1.16 1.04 1.03 1.13 1.11 1.07 1.18 1.29 1.48 1.89
1.23 1.20 1.12 1.07 1.15 1.12 1.06 1.13 1.18 1.24 1.33 1.49 1.63 1.77 1.92 2.18 2.48 2.53 2.51 2.41 2.34 2.24 1.98 1.76 1.56 1.44 1.72 1.82 1.74 1.62 1.59 1.55 1.32 1.23 1.08 0.99 1.03 1.03 0.96 0.92 0.96 1.09 1.31
0.85 0.96 1.08 1.02 1.00 1.02 1.04 1.10 1.11 1.13 1.19 1.31 1.43 1.56 1.74 2.02 2.37 2.59 2.68 2.57 2.44 2.33 2.18 2.02 1.69 1.43 1.51 1.84 1.96 1.89 1.70 1.54 1.39 1.32 1.14 1.02 1.00 0.99 0.93 0.89 0.86 0.89 0.95
0.69 0.71 0.81 0.81 0.90 0.99 1.02 1.06 1.08 1.11 1.15 1.24 1.39 1.45 1.51 1.71 1.92 2.11 2.31 2.44 2.42 2.41 2.38 2.13 1.83 1.56 1.49 1.63 1.87 1.86 1.79 1.79 1.55 1.48 1.44 1.29 1.14 1.08 1.03 0.90 0.87 0.86 0.87
0.78 0.79 0.89 0.92 0.87 0.88 0.93 1.01 1.06 1.05 1.05 1.07 1.14 1.24 1.34 1.41 1.58 1.71 1.83 2.05 2.26 2.49 2.55 2.39 2.13 1.80 1.68 1.57 1.65 1.81 1.89 1.84 1.76 1.57 1.53 1.39 1.36 1.30 1.25 1.08 0.93 0.85 0.88
0.86 0.85 0.93 1.03 1.07 1.03 1.01 1.07 1.02 1.02 1.05 1.03 1.07 1.06 1.13 1.18 1.27 1.45 1.48 1.71 2.02 2.30 2.40 2.47 2.34 2.03 1.76 1.60 1.37 1.48 1.75 1.98 1.98 1.92 1.90 1.63 1.47 1.32 1.27 1.25 1.18 1.04 0.92
0.77 0.73 0.75 0.80 0.88 0.95 1.23 1.16 0.94 0.88 0.95 1.00 1.05 1.04 1.07 1.03 1.01 1.09 1.23 1.35 1.62 1.85 1.99 2.08 2.10 1.93 1.72 1.58 1.54 1.50 1.58 1.72 1.78 1.70 1.77 1.85 1.74 1.57 1.46 1.34 1.36 1.40 1.30
0.66 0.62 0.62 0.60 0.64 0.84 0.98 0.79 0.75 0.76 0.88 0.99 1.07 1.12 1.09 1.02 1.05 1.06 1.10 1.11 1.16 1.36 1.57 1.77 1.80 1.69 1.76 1.68 1.61 1.50 1.51 1.51 1.50 1.61 1.70 1.81 1.80 1.70 1.61 1.58 1.58 1.46 1.41
0.58 0.55 0.59 0.65 0.66 0.72 0.82 0.68 0.63 0.69 0.88 1.01 1.02 0.99 1.08 1.10 1.14 1.19 1.12 1.16 1.10 1.09 1.20 1.23 1.36 1.58 1.75 1.92 1.90 1.79 1.79 1.71 1.62 1.72 1.73 1.71 1.61 1.56 1.49 1.48 1.54 1.37 1.26
0.66 0.62 0.71 0.77 0.72 0.68 0.75 0.71 0.72 0.81 0.93 1.02 0.99 1.00 1.10 1.14 1.31 1.36 1.25 1.31 1.25 1.22 1.21 1.32 1.41 1.52 1.63 1.74 1.88 1.91 1.87 1.85 1.71 1.64 1.62 1.57 1.45 1.48 1.48 1.39 1.35 1.35 1.23
0.61 0.66 0.66 0.61 0.61 0.69 0.80 0.75 0.81 0.94 1.06 1.16 1.13 1.14 1.36 1.32 1.32 1.25 1.19 1.36 1.32 1.19 1.12 1.16 1.21 1.31 1.36 1.46 1.60 1.64 1.78 1.87 1.78 1.63 1.40 1.38 1.36 1.41 1.49 1.38 1.27 1.20 1.17